Regional Weather Roundup
Issued by NWS

Home | Current Version | Previous Version | Graphics & Text | Print | Product List | Glossary On
Versions: 1 2 3 4 5 6 7 8 9 10 11 12 13 14 15 16 17 18 19 20 21 22 23 24 25 26 27 28 29 30 31 32 33 34 35 36 37 38 39 40 41 42 43 44 45 46 47 48 49 50
031
ASUS43 KOAX 161510
RWRNE

WEATHER ROUNDUP FOR NEBRASKA
NATIONAL WEATHER SERVICE OMAHA NE
1000 AM CDT WED AUG 16 2017

NOTES: SATELLITE DATA IS BEING USED TO AUGMENT CLOUD COVER ABOVE
       12000 FEET.
       "FAIR" INDICATES FEW OR NO CLOUDS BELOW 12,000 FEET WITH NO
       SIGNIFICANT WEATHER AND/OR OBSTRUCTIONS TO VISIBILITY.


NEZ001>004-019>022-054>056-161600-
NEBRASKA PANHANDLE

CITY           SKY/WX    TMP DP  RH WIND       PRES   REMARKS
SCOTTSBLUFF    CLOUDY    63  56  78 W8        30.04R
ALLIANCE       PTSUNNY   63  56  78 N16       30.00R
CHADRON        PTSUNNY   64  58  80 N8        30.01R
GORDON         CLOUDY    61  58  91 N15G22    29.98S
KIMBALL        SUNNY     61  53  74 NW15      30.07S
SIDNEY         MOSUNNY   64  55  72 NW18      30.04R
$$

NEZ057>060-069>072-079>082-161600-
SOUTHWEST NEBRASKA

CITY           SKY/WX    TMP DP  RH WIND       PRES   REMARKS
NORTH PLATTE   MOSUNNY   68  62  81 NW8       29.94R
IMPERIAL       CLOUDY    64  59  83 NW10      29.98S
LEXINGTON      CLOUDY    68  60  76 NW14G20   29.91F
MCCOOK         CLOUDY    65  62  90 NW9       29.94R
OGALLALA       CLOUDY    65  63  91 W7        29.98R
$$

NEZ005>010-023>029-035>040-094-161600-
NORTH CENTRAL NEBRASKA

CITY           SKY/WX    TMP DP  RH WIND       PRES   REMARKS
VALENTINE      CLOUDY    67  61  81 N10       29.91R
AINSWORTH      CLOUDY    64  64  97 NW7       29.89F
BROKEN BOW     CLOUDY    66  61  84 NW9       29.89R
O`NEILL        RAIN      64  64 100 N3        29.86S
ORD            CLOUDY    64  62  93 NW8       29.85R
THEDFORD       MOSUNNY   69  62  77 N14       29.91F
$$

NEZ041-046>049-061>064-073>077-083>087-161600-
SOUTH CENTRAL NEBRASKA

CITY           SKY/WX    TMP DP  RH WIND       PRES   REMARKS
GRAND ISLAND   CLOUDY    66  65  96 W10       29.85R
AURORA         CLOUDY    65  65 100 NW12      29.83R
HASTINGS       CLOUDY    68  62  81 W17       29.87R
HEBRON         CLOUDY    67  66  97 W12G18    29.84R
HOLDREGE       CLOUDY    67  60  79 NW9       29.90S
KEARNEY        PTSUNNY   66  61  84 NW15      29.89S
YORK           CLOUDY    66  66 100 NW9       29.81F
$$

NEZ011>018-030>034-042>045-161600-
NORTHEAST NEBRASKA

CITY           SKY/WX    TMP DP  RH WIND       PRES   REMARKS
NORFOLK        LGT RAIN  66  64  93 E6        29.78R
ALBION         CLOUDY    67  66  97 NW7       29.81R FOG
BLAIR          RAIN      70  69  97 W5        29.76S
COLUMBUS       LGT RAIN  68  66  93 CALM      29.78R
FREMONT        LGT RAIN  68  68  98 CALM      29.75F
TEKAMAH        LGT RAIN  70  68  93 E13       29.73F FOG
WAYNE          LGT RAIN  67  64  91 NE10      29.77F
$$

NEZ050>053-065>068-078-088>093-161600-
SOUTHEAST NEBRASKA

CITY           SKY/WX    TMP DP  RH WIND       PRES   REMARKS
LINCOLN        CLOUDY    70  67  90 E6        29.71F
OMAHA EPPLEY   LGT RAIN  73  68  84 CALM      29.75F
BEATRICE       PTSUNNY   68  66  91 W5        29.77R
FALLS CITY     LGT RAIN  72  66  81 NW7       29.81S
NEBRASKA CITY  LGT RAIN  69  69 100 E10       29.74F
PLATTSMOUTH    CLOUDY    71  68  91 CALM      29.76F
$$

NEZ044-045-051>053-067-161600-
OMAHA AREA

CITY           SKY/WX    TMP DP  RH WIND       PRES   REMARKS
OMAHA EPPLEY   LGT RAIN  73  68  84 CALM      29.75F
BLAIR          RAIN      70  69  97 W5        29.76S
FREMONT        LGT RAIN  68  68  98 CALM      29.75F
MILLARD        CLOUDY    72  69  93 CALM      29.75F
OFFUTT AFB     LGT RAIN  73  68  84 CALM      29.75F
PLATTSMOUTH    CLOUDY    71  68  91 CALM      29.76F
WAHOO          DRIZZLE   69  68  98 NE8       29.72F
$$




USA.gov is the U.S. government's official web portal to all federal, state and local government web resources and services.